Home   Weather   Township of Fairfield   Past weeks
Flag for USA

Past Weather in Township of Fairfield, Indiana, USA — Yesterday and Last 2 Weeks

Now
44 °F

Broken clouds.


Feels Like: 39 °F
Forecast: 44 / 29 °F
Wind: 10 mph from Southwest

Location: Fort Wayne International Airport

Current Time: Dec 5, 2019 at 5:08:00 pm

Latest Report: Dec 5, 2019 at 3:54 pm


Visibility: 10 mi

Pressure: 30.05 "Hg

Humidity: 58%

Dew Point: 30 °F

Location of Township of FairfieldLocation

Past Weather in Township of Fairfield — Graph

°F

Township of Fairfield Temperature Yesterday

Maximum temperature yesterday: 41 °F (at 12:54 pm)
Minimum temperature yesterday: 32 °F (at 12:54 am)
Average temperature yesterday: 36 °F

High & Low Weather Summary for the Past Weeks

 TemperatureHumidityPressure
High56 °F (Nov 27, 5:44 am)100% (Dec 1, 8:54 am)30.47 "Hg (Dec 1, 8:54 am)
Low22 °F (Nov 23, 4:54 am)49% (Dec 5, 1:54 pm)29.33 "Hg (Dec 1, 5:34 am)
Average38 °F83%29.87 "Hg
* Reported Nov 20 3:54 pm — Dec 5 3:54 pm, Township of Fairfield. Weather by CustomWeather, © 2019

Note: Actual official high and low records may vary slightly from our data, if they occured in-between our weather recording intervals... More about our weather records

Township of Fairfield Weather History for the Previous 24 Hours

Scroll right to see more
 ConditionsComfort  
Time TempWeatherWind HumidityBarometerVisibility
3:54 pm
Thu, Dec 5
44 °FBroken clouds.10 mph58%30.05 "Hg10 mi
2:54 pm43 °FPartly sunny.8 mph58%30.06 "Hg10 mi
1:54 pm44 °FScattered clouds.8 mph49%30.07 "Hg10 mi
12:54 pm43 °FPassing clouds.9 mph53%30.09 "Hg10 mi
11:54 am41 °FPassing clouds.8 mph62%30.09 "Hg10 mi
10:54 am38 °FPassing clouds.8 mph70%30.11 "Hg10 mi
9:54 am35 °FPassing clouds.6 mph75%30.09 "Hg10 mi
8:54 am31 °FPassing clouds.5 mph85%30.07 "Hg10 mi
7:54 am27 °FPassing clouds.5 mph89%30.05 "Hg10 mi
6:54 am29 °FClear.7 mph82%30.02 "Hg10 mi
5:54 am29 °FClear.9 mph82%30.00 "Hg10 mi
4:54 am29 °FPassing clouds.9 mph82%29.98 "Hg10 mi
3:54 am29 °FPassing clouds.6 mph82%29.96 "Hg10 mi
2:54 am30 °FPassing clouds.6 mph79%29.95 "Hg10 mi
1:54 am33 °FPassing clouds.8 mph72%29.92 "Hg10 mi
12:54 am35 °FPassing clouds.9 mph70%29.90 "Hg10 mi
11:54 pm
Wed, Dec 4
35 °FPassing clouds.9 mph72%29.89 "Hg10 mi
10:54 pm36 °FOvercast.13 mph73%29.85 "Hg10 mi
9:54 pm36 °FOvercast.8 mph73%29.84 "Hg10 mi
8:54 pm35 °FPassing clouds.8 mph72%29.81 "Hg10 mi
7:54 pm38 °FOvercast.10 mph65%29.79 "Hg10 mi
6:54 pm38 °FPassing clouds.10 mph65%29.77 "Hg10 mi
5:54 pm39 °FPassing clouds.12 mph57%29.75 "Hg10 mi
Weather by CustomWeather, © 2019

See weather overview

Advertising